This demonstration page uses our WeatherBlox Daily Observations layout. Learn more.

Left ArrowRight Arrow

Hourly Observations for July 17, 2018

Temp ( °F °C ) Dew Point ( °F °C ) Humidity (%) Winds ( mph kmh ) Pressure ( in mb ) Visibility ( mi km ) Precip ( " mm )
12:51 am 00:51 Clear 70 21.1 66 18.9 87 87 ENE 5 7 29.91 1013 10 16.0934 N/A
1:51 am 01:51 Clear 68 20 67 19.4 96 96 NW 6 9 29.93 1014 10 16.0934 N/A
2:51 am 02:51 Clear 68 20 67 19.4 96 96 NNW 3 6 29.93 1013 10 16.0934 N/A
3:51 am 03:51 Clear 67 19.4 67 19.4 100 100 N N/A 29.94 1014 10 16.0934 N/A
4:51 am 04:51 Clear 68 20 66 18.9 93 93 SE 8 13 29.94 1014 10 16.0934 N/A
5:51 am 05:51 Sunny 68 20 65 18.3 90 90 SE 9 15 29.96 1015 10 16.0934 N/A
6:51 am 06:51 Sunny 72 22.2 65 18.3 79 79 SE 8 13 29.98 1015 10 16.0934 N/A
7:51 am 07:51 Sunny 76 24.4 64 17.8 67 67 ESE 10 17 29.98 1015 10 16.0934 N/A
8:51 am 08:51 Sunny 79 26.1 64 17.8 60 60 VRB 6 9 29.98 1015 10 16.0934 N/A
9:51 am 09:51 Sunny 82 27.8 63 17.2 53 53 SE 8 13 29.98 1015 10 16.0934 N/A
10:51 am 10:51 Sunny 85 29.4 63 17.2 48 48 VRB 5 7 29.97 1015 10 16.0934 N/A
11:51 am 11:51 Sunny 88 31.1 62 16.7 42 42 VRB 6 9 29.95 1014 10 16.0934 N/A
12:51 pm 12:51 Sunny 91 32.8 61 16.1 37 37 SE 7 11 29.91 1013 10 16.0934 N/A
1:51 pm 13:51 Mostly Sunny 94 34.4 59 15 31 31 SW 7 11 29.89 1012 10 16.0934 N/A
2:51 pm 14:51 Partly Cloudy 97 36.1 54 12.2 24 24 SSE 8 13 29.85 1011 10 16.0934 N/A
3:51 pm 15:51 Sunny 97 36.1 50 10 20 20 VRB 7 11 29.82 1010 10 16.0934 N/A
4:51 pm 16:51 Sunny 98 36.7 48 8.9 18 18 SSE 10 17 29.8 1009 10 16.0934 N/A
5:51 pm 17:51 Sunny 97 36.1 44 6.7 16 16 SSE 8 13 29.79 1009 10 16.0934 N/A
6:51 pm 18:51 Sunny 96 35.6 47 8.3 19 19 SE 9 15 29.79 1009 10 16.0934 N/A
7:51 pm 19:51 Clear 93 33.9 50 10 23 23 SE 7 11 29.82 1010 10 16.0934 N/A
8:51 pm 20:51 Clear 90 32.2 51 10.6 26 26 ESE 8 13 29.84 1011 10 16.0934 N/A
9:51 pm 21:51 Clear 85 29.4 55 12.8 36 36 E 5 7 29.87 1011 10 16.0934 N/A
10:51 pm 22:51 Clear 83 28.3 55 12.8 38 38 ESE 6 9 29.88 1012 10 16.0934 N/A
11:51 pm 23:51 Clear 82 27.8 55 12.8 40 40 E 8 13 29.88 1012 10 16.0934 N/A

Powered by AerisWeather